| time (UTC) | temp F | wind direction | speed MPH | gust MPH | rain 1hr in | rain 24hr in | rain mn in | humidity % | barometer mb |
| 20260508095543 | 39 | 0 | 0.0 | 0.0 | 0.00 | 0.00 | 0.00 | 89 | 1011.9 |
| 20260508095046 | 39 | 0 | 0.0 | 0.0 | 0.00 | 0.00 | 0.00 | 88 | 1011.9 |
| 20260508094551 | 40 | 0 | 0.0 | 0.0 | 0.00 | 0.00 | 0.00 | 88 | 1011.9 |
| 20260508094042 | 40 | 0 | 0.0 | 0.0 | 0.00 | 0.00 | 0.00 | 88 | 1012.0 |
| 20260508093542 | 40 | 0 | 0.0 | 0.0 | 0.00 | 0.00 | 0.00 | 88 | 1012.0 |
| 20260508093054 | 40 | 0 | 0.0 | 0.0 | 0.00 | 0.00 | 0.00 | 88 | 1012.0 |
| 20260508092540 | 40 | 0 | 0.0 | 0.0 | 0.00 | 0.00 | 0.00 | 88 | 1012.0 |
| 20260508092043 | 41 | 0 | 0.0 | 0.0 | 0.00 | 0.00 | 0.00 | 88 | 1012.0 |
| 20260508091557 | 41 | 0 | 0.0 | 0.0 | 0.00 | 0.00 | 0.00 | 87 | 1012.1 |
| 20260508091042 | 41 | 0 | 0.0 | 0.0 | 0.00 | 0.00 | 0.00 | 85 | 1012.1 |
| 20260508090542 | 42 | 0 | 0.0 | 0.0 | 0.00 | 0.00 | 0.00 | 84 | 1012.1 |
| 20260508090105 | 42 | 0 | 0.0 | 0.0 | 0.00 | 0.00 | 0.00 | 84 | 1012.0 |
| 20260508085541 | 43 | 0 | 0.0 | 0.0 | 0.00 | 0.00 | 0.00 | 83 | 1012.0 |
| 20260508085041 | 43 | 0 | 0.0 | 0.0 | 0.00 | 0.00 | 0.00 | 84 | 1011.9 |
| 20260508084550 | 43 | 0 | 0.0 | 2.0 | 0.00 | 0.00 | 0.00 | 85 | 1011.8 |
| 20260508084044 | 43 | 0 | 0.0 | 2.0 | 0.00 | 0.00 | 0.00 | 84 | 1011.9 |
| 20260508083543 | 43 | 0 | 0.0 | 2.0 | 0.00 | 0.00 | 0.00 | 85 | 1011.9 |
| 20260508083047 | 43 | 0 | 0.0 | 2.0 | 0.00 | 0.00 | 0.00 | 84 | 1011.9 |
| 20260508082542 | 43 | 0 | 0.0 | 2.0 | 0.00 | 0.00 | 0.00 | 83 | 1012.0 |
| 20260508082042 | 43 | 0 | 0.0 | 1.0 | 0.00 | 0.00 | 0.00 | 82 | 1012.1 |
| 20260508081600 | 43 | 0 | 0.0 | 1.0 | 0.00 | 0.00 | 0.00 | 85 | 1012.1 |
| 20260508081043 | 43 | 0 | 0.0 | 1.0 | 0.00 | 0.00 | 0.00 | 82 | 1012.0 |
| 20260508080543 | 43 | 0 | 0.0 | 0.0 | 0.00 | 0.00 | 0.00 | 82 | 1012.1 |
| 20260508080054 | 42 | 0 | 0.0 | 0.0 | 0.00 | 0.00 | 0.00 | 84 | 1012.1 |
| 20260508075542 | 42 | 0 | 0.0 | 0.0 | 0.00 | 0.00 | 0.00 | 85 | 1012.1 |
| 20260508075041 | 42 | 0 | 0.0 | 2.0 | 0.00 | 0.00 | 0.00 | 86 | 1012.1 |
| 20260508074551 | 43 | 0 | 0.0 | 2.0 | 0.00 | 0.00 | 0.00 | 85 | 1012.2 |
| 20260508074046 | 43 | 0 | 0.0 | 1.0 | 0.00 | 0.00 | 0.00 | 83 | 1012.4 |
| 20260508073542 | 42 | 0 | 0.0 | 1.0 | 0.00 | 0.00 | 0.00 | 87 | 1012.4 |
| 20260508073107 | 42 | 0 | 0.0 | 1.0 | 0.00 | 0.00 | 0.00 | 88 | 1012.4 |
| 20260508072541 | 42 | 0 | 0.0 | 2.0 | 0.00 | 0.00 | 0.00 | 88 | 1012.5 |
| 20260508072040 | 42 | 0 | 0.0 | 2.0 | 0.00 | 0.00 | 0.00 | 88 | 1012.5 |
| 20260508071604 | 42 | 0 | 0.0 | 3.0 | 0.00 | 0.00 | 0.00 | 89 | 1012.5 |
| 20260508071042 | 42 | 50 | 0.0 | 3.0 | 0.00 | 0.00 | 0.00 | 88 | 1012.5 |
| 20260508070541 | 42 | 0 | 0.0 | 0.0 | 0.00 | 0.00 | 0.00 | 89 | 1012.6 |
| 20260508070058 | 41 | 0 | 0.0 | 0.0 | 0.00 | 0.00 | 0.00 | 89 | 1012.5 |
| 20260508065546 | 41 | 0 | 0.0 | 0.0 | 0.00 | 0.00 | 0.00 | 88 | 1012.5 |
| 20260508065042 | 42 | 0 | 0.0 | 0.0 | 0.00 | 0.00 | 0.00 | 88 | 1012.5 |
| 20260508064550 | 42 | 0 | 0.0 | 0.0 | 0.00 | 0.00 | 0.00 | 89 | 1012.4 |
| 20260508064045 | 42 | 0 | 0.0 | 0.0 | 0.00 | 0.00 | 0.00 | 90 | 1012.3 |
| 20260508063542 | 41 | 0 | 0.0 | 0.0 | 0.00 | 0.00 | 0.00 | 90 | 1012.3 |
| 20260508063049 | 41 | 0 | 0.0 | 0.0 | 0.00 | 0.00 | 0.00 | 90 | 1012.1 |
| 20260508062541 | 40 | 0 | 0.0 | 0.0 | 0.00 | 0.00 | 0.00 | 89 | 1012.0 |
| 20260508062042 | 40 | 0 | 0.0 | 0.0 | 0.00 | 0.00 | 0.00 | 89 | 1012.0 |
| 20260508061552 | 40 | 0 | 0.0 | 0.0 | 0.00 | 0.00 | 0.00 | 88 | 1012.0 |
| 20260508061042 | 40 | 0 | 0.0 | 0.0 | 0.00 | 0.00 | 0.00 | 87 | 1012.0 |
| 20260508060542 | 41 | 0 | 0.0 | 0.0 | 0.00 | 0.00 | 0.00 | 88 | 1012.1 |
| 20260508060055 | 40 | 0 | 0.0 | 0.0 | 0.00 | 0.00 | 0.00 | 88 | 1012.2 |
| 20260508055542 | 40 | 0 | 0.0 | 0.0 | 0.00 | 0.00 | 0.00 | 88 | 1012.2 |
| 20260508055040 | 39 | 0 | 0.0 | 0.0 | 0.00 | 0.00 | 0.00 | 90 | 1012.2 |
| 20260508054605 | 39 | 0 | 0.0 | 0.0 | 0.00 | 0.00 | 0.00 | 90 | 1012.2 |
| 20260508054044 | 39 | 0 | 0.0 | 0.0 | 0.00 | 0.00 | 0.00 | 90 | 1012.2 |
| 20260508053541 | 38 | 0 | 0.0 | 0.0 | 0.00 | 0.00 | 0.00 | 90 | 1012.3 |
| 20260508053053 | 38 | 0 | 0.0 | 0.0 | 0.00 | 0.00 | 0.00 | 90 | 1012.3 |
| 20260508052541 | 38 | 0 | 0.0 | 0.0 | 0.00 | 0.00 | 0.00 | 90 | 1012.3 |
| 20260508052040 | 38 | 0 | 0.0 | 0.0 | 0.00 | 0.00 | 0.00 | 89 | 1012.3 |
| 20260508051548 | 39 | 0 | 0.0 | 0.0 | 0.00 | 0.00 | 0.00 | 90 | 1012.3 |
| 20260508051042 | 39 | 0 | 0.0 | 0.0 | 0.00 | 0.00 | 0.00 | 90 | 1012.4 |
| 20260508050542 | 39 | 0 | 0.0 | 0.0 | 0.00 | 0.00 | 0.00 | 89 | 1012.5 |
| 20260508050053 | 39 | 0 | 0.0 | 0.0 | 0.00 | 0.00 | 0.00 | 89 | 1012.5 |
| 20260508045540 | 39 | 0 | 0.0 | 0.0 | 0.00 | 0.00 | 0.00 | 88 | 1012.5 |
| 20260508045041 | 39 | 0 | 0.0 | 0.0 | 0.00 | 0.00 | 0.00 | 87 | 1012.6 |
| 20260508044558 | 40 | 0 | 0.0 | 0.0 | 0.00 | 0.00 | 0.00 | 88 | 1012.5 |
| 20260508044046 | 40 | 0 | 0.0 | 0.0 | 0.00 | 0.00 | 0.00 | 88 | 1012.7 |
| 20260508043541 | 40 | 0 | 0.0 | 0.0 | 0.00 | 0.00 | 0.00 | 89 | 1012.7 |
| 20260508043049 | 40 | 0 | 0.0 | 0.0 | 0.00 | 0.00 | 0.00 | 88 | 1012.6 |
| 20260508042541 | 40 | 0 | 0.0 | 0.0 | 0.00 | 0.00 | 0.00 | 88 | 1012.6 |
| 20260508042041 | 40 | 0 | 0.0 | 0.0 | 0.00 | 0.00 | 0.00 | 88 | 1012.7 |
| 20260508041551 | 41 | 0 | 0.0 | 0.0 | 0.00 | 0.00 | 0.00 | 88 | 1012.5 |
| 20260508041042 | 40 | 0 | 0.0 | 0.0 | 0.00 | 0.00 | 0.00 | 89 | 1012.5 |
| 20260508040542 | 40 | 0 | 0.0 | 0.0 | 0.00 | 0.00 | 0.00 | 89 | 1012.4 |
| 20260508040059 | 40 | 0 | 0.0 | 0.0 | 0.00 | 0.00 | 0.00 | 88 | 1012.4 |
| 20260508035542 | 40 | 0 | 0.0 | 0.0 | 0.00 | 0.00 | 0.00 | 89 | 1012.4 |
| 20260508035042 | 40 | 0 | 0.0 | 0.0 | 0.00 | 0.00 | 0.00 | 88 | 1012.4 |
| 20260508034554 | 40 | 0 | 0.0 | 0.0 | 0.00 | 0.00 | 0.00 | 88 | 1012.4 |
| 20260508034042 | 40 | 0 | 0.0 | 0.0 | 0.00 | 0.00 | 0.00 | 88 | 1012.4 |
| 20260508033539 | 40 | 0 | 0.0 | 0.0 | 0.00 | 0.00 | 0.00 | 87 | 1012.4 |
| 20260508033113 | 41 | 0 | 0.0 | 0.0 | 0.00 | 0.00 | 0.00 | 87 | 1012.3 |
| 20260508032540 | 41 | 0 | 0.0 | 0.0 | 0.00 | 0.00 | 0.00 | 87 | 1012.3 |
| 20260508032041 | 40 | 0 | 0.0 | 0.0 | 0.00 | 0.00 | 0.00 | 87 | 1012.3 |
| 20260508031552 | 40 | 0 | 0.0 | 0.0 | 0.00 | 0.00 | 0.00 | 87 | 1012.4 |
| 20260508031046 | 41 | 0 | 0.0 | 0.0 | 0.00 | 0.00 | 0.00 | 86 | 1012.3 |
| 20260508030541 | 41 | 0 | 0.0 | 0.0 | 0.00 | 0.00 | 0.00 | 86 | 1012.4 |
| 20260508030108 | 41 | 0 | 0.0 | 0.0 | 0.00 | 0.00 | 0.00 | 85 | 1012.5 |
| 20260508025542 | 41 | 0 | 0.0 | 0.0 | 0.00 | 0.00 | 0.00 | 84 | 1012.4 |
| 20260508025042 | 42 | 0 | 0.0 | 0.0 | 0.00 | 0.00 | 0.00 | 83 | 1012.5 |
| 20260508024620 | 42 | 0 | 0.0 | 0.0 | 0.00 | 0.00 | 0.00 | 84 | 1012.5 |
| 20260508024046 | 41 | 0 | 0.0 | 0.0 | 0.00 | 0.00 | 0.00 | 83 | 1012.4 |
| 20260508023542 | 42 | 0 | 0.0 | 0.0 | 0.00 | 0.00 | 0.00 | 83 | 1012.5 |
| 20260508023051 | 42 | 0 | 0.0 | 0.0 | 0.00 | 0.00 | 0.00 | 82 | 1012.5 |
| 20260508022541 | 42 | 0 | 0.0 | 0.0 | 0.00 | 0.00 | 0.00 | 83 | 1012.5 |
| 20260508022041 | 42 | 0 | 0.0 | 0.0 | 0.00 | 0.00 | 0.00 | 81 | 1012.4 |
| 20260508021551 | 43 | 0 | 0.0 | 0.0 | 0.00 | 0.00 | 0.00 | 80 | 1012.4 |
| 20260508021041 | 43 | 0 | 0.0 | 0.0 | 0.00 | 0.00 | 0.00 | 80 | 1012.5 |
| 20260508020541 | 43 | 0 | 0.0 | 0.0 | 0.00 | 0.00 | 0.00 | 79 | 1012.4 |
| 20260508020106 | 44 | 0 | 0.0 | 0.0 | 0.00 | 0.00 | 0.00 | 77 | 1012.3 |
| 20260508015541 | 44 | 0 | 0.0 | 0.0 | 0.00 | 0.00 | 0.00 | 78 | 1012.4 |
| 20260508015039 | 44 | 0 | 0.0 | 0.0 | 0.00 | 0.00 | 0.00 | 75 | 1012.4 |
| 20260508014600 | 44 | 0 | 0.0 | 0.0 | 0.00 | 0.00 | 0.00 | 74 | 1012.2 |
| 20260508014043 | 44 | 0 | 0.0 | 0.0 | 0.00 | 0.00 | 0.00 | 73 | 1012.3 |
| 20260508013541 | 45 | 0 | 0.0 | 0.0 | 0.00 | 0.00 | 0.00 | 72 | 1012.2 |
| 20260508013107 | 45 | 0 | 0.0 | 0.0 | 0.00 | 0.00 | 0.00 | 72 | 1012.1 |
| 20260508012541 | 46 | 0 | 0.0 | 0.0 | 0.00 | 0.00 | 0.00 | 69 | 1012.1 |
| 20260508012040 | 46 | 0 | 0.0 | 0.0 | 0.00 | 0.00 | 0.00 | 68 | 1012.1 |
| 20260508011559 | 47 | 0 | 0.0 | 0.0 | 0.00 | 0.00 | 0.00 | 67 | 1012.0 |
| 20260508011045 | 47 | 0 | 0.0 | 0.0 | 0.00 | 0.00 | 0.00 | 66 | 1012.0 |
| 20260508010540 | 47 | 0 | 0.0 | 0.0 | 0.00 | 0.00 | 0.00 | 64 | 1011.9 |
| 20260508010055 | 48 | 0 | 0.0 | 0.0 | 0.00 | 0.00 | 0.00 | 64 | 1011.8 |
| 20260508005541 | 48 | 0 | 0.0 | 0.0 | 0.00 | 0.00 | 0.00 | 61 | 1011.8 |
| 20260508005042 | 49 | 0 | 0.0 | 0.0 | 0.00 | 0.00 | 0.00 | 59 | 1011.8 |
| 20260508004551 | 50 | 0 | 0.0 | 1.0 | 0.00 | 0.00 | 0.00 | 59 | 1011.8 |
| 20260508004042 | 51 | 0 | 0.0 | 1.0 | 0.00 | 0.00 | 0.00 | 56 | 1011.8 |
| 20260508003543 | 52 | 0 | 0.0 | 2.0 | 0.00 | 0.00 | 0.00 | 55 | 1011.7 |
| 20260508003051 | 52 | 0 | 0.0 | 2.0 | 0.00 | 0.00 | 0.00 | 53 | 1011.7 |
| 20260508002542 | 52 | 0 | 0.0 | 3.0 | 0.00 | 0.00 | 0.00 | 51 | 1011.5 |
| 20260508002042 | 53 | 0 | 0.0 | 4.0 | 0.00 | 0.00 | 0.00 | 49 | 1011.6 |
| 20260508001556 | 53 | 113 | 0.0 | 9.0 | 0.00 | 0.00 | 0.00 | 50 | 1011.6 |
| 20260508001042 | 54 | 140 | 0.0 | 9.0 | 0.00 | 0.00 | 0.00 | 45 | 1011.5 |
| 20260508000542 | 54 | 138 | 5.0 | 9.0 | 0.00 | 0.00 | 0.00 | 44 | 1011.6 |
| 20260508000053 | 54 | 154 | 1.0 | 6.0 | 0.00 | 0.00 | 0.00 | 47 | 1011.6 |
| 20260507235542 | 55 | 0 | 0.0 | 8.0 | 0.00 | 0.00 | 0.00 | 43 | 1011.3 |
| 20260507235041 | 55 | 0 | 2.0 | 9.0 | 0.00 | 0.00 | 0.00 | 43 | 1011.4 |
| 20260507234547 | 55 | 146 | 2.0 | 9.0 | 0.00 | 0.00 | 0.00 | 45 | 1011.3 |
| 20260507234044 | 56 | 142 | 3.0 | 9.0 | 0.00 | 0.00 | 0.00 | 45 | 1011.3 |
| 20260507233541 | 56 | 109 | 2.0 | 9.0 | 0.00 | 0.00 | 0.00 | 41 | 1011.1 |
| 20260507233053 | 56 | 143 | 4.0 | 9.0 | 0.00 | 0.00 | 0.00 | 41 | 1011.2 |
| 20260507232542 | 57 | 117 | 2.0 | 9.0 | 0.00 | 0.00 | 0.00 | 43 | 1011.1 |
| 20260507232043 | 57 | 144 | 3.0 | 10.0 | 0.00 | 0.00 | 0.00 | 44 | 1011.1 |
| 20260507231552 | 57 | 152 | 2.0 | 10.0 | 0.00 | 0.00 | 0.00 | 42 | 1011.1 |
| 20260507231040 | 57 | 131 | 3.0 | 14.0 | 0.00 | 0.00 | 0.00 | 41 | 1011.1 |
| 20260507230544 | 57 | 157 | 4.0 | 14.0 | 0.00 | 0.00 | 0.00 | 43 | 1011.2 |
| 20260507230053 | 57 | 154 | 5.0 | 14.0 | 0.00 | 0.00 | 0.00 | 44 | 1011.2 |
| 20260507225544 | 56 | 136 | 4.0 | 9.0 | 0.00 | 0.00 | 0.00 | 45 | 1011.3 |
| 20260507225041 | 57 | 131 | 4.0 | 12.0 | 0.00 | 0.00 | 0.00 | 42 | 1011.4 |
| 20260507224551 | 57 | 149 | 4.0 | 14.0 | 0.00 | 0.00 | 0.00 | 46 | 1011.3 |
| 20260507224044 | 57 | 173 | 7.0 | 14.0 | 0.00 | 0.00 | 0.00 | 43 | 1011.4 |
| 20260507223542 | 57 | 145 | 6.0 | 13.0 | 0.00 | 0.00 | 0.00 | 44 | 1011.4 |
| 20260507223053 | 57 | 171 | 5.0 | 14.0 | 0.00 | 0.00 | 0.00 | 43 | 1011.4 |
| 20260507222542 | 57 | 138 | 6.0 | 19.0 | 0.00 | 0.00 | 0.00 | 45 | 1011.4 |
| 20260507222044 | 56 | 150 | 5.0 | 19.0 | 0.00 | 0.00 | 0.00 | 43 | 1011.4 |
| 20260507221549 | 57 | 161 | 7.0 | 15.0 | 0.00 | 0.00 | 0.00 | 44 | 1011.3 |
| 20260507221040 | 57 | 137 | 5.0 | 17.0 | 0.00 | 0.00 | 0.00 | 45 | 1011.3 |
| 20260507220541 | 57 | 146 | 10.0 | 17.0 | 0.00 | 0.00 | 0.00 | 44 | 1011.2 |
| 20260507220053 | 57 | 165 | 6.0 | 21.0 | 0.00 | 0.00 | 0.00 | 42 | 1011.1 |
| 20260507215542 | 57 | 131 | 10.0 | 21.0 | 0.00 | 0.00 | 0.00 | 42 | 1011.2 |
| 20260507215041 | 57 | 131 | 8.0 | 17.0 | 0.00 | 0.00 | 0.00 | 42 | 1011.1 |
| 20260507214549 | 57 | 136 | 7.0 | 16.0 | 0.00 | 0.00 | 0.00 | 45 | 1011.1 |
| 20260507214040 | 56 | 99 | 5.0 | 17.0 | 0.00 | 0.00 | 0.00 | 43 | 1011.0 |
| 20260507213540 | 57 | 127 | 10.0 | 17.0 | 0.00 | 0.00 | 0.00 | 41 | 1011.0 |
| 20260507213057 | 58 | 97 | 7.0 | 18.0 | 0.00 | 0.00 | 0.00 | 44 | 1010.9 |
| 20260507212542 | 58 | 133 | 7.0 | 18.0 | 0.00 | 0.00 | 0.00 | 45 | 1010.8 |
| 20260507212043 | 58 | 167 | 9.0 | 18.0 | 0.00 | 0.00 | 0.00 | 45 | 1010.8 |
| 20260507211553 | 58 | 155 | 2.0 | 18.0 | 0.00 | 0.00 | 0.00 | 46 | 1010.6 |
| 20260507211042 | 57 | 111 | 7.0 | 18.0 | 0.00 | 0.00 | 0.00 | 44 | 1010.6 |
| 20260507210542 | 57 | 139 | 11.0 | 18.0 | 0.00 | 0.00 | 0.00 | 45 | 1010.5 |
| 20260507210050 | 58 | 142 | 8.0 | 18.0 | 0.00 | 0.00 | 0.00 | 45 | 1010.4 |
| 20260507205540 | 57 | 154 | 7.0 | 18.0 | 0.00 | 0.00 | 0.00 | 46 | 1010.4 |
| 20260507205039 | 56 | 123 | 4.0 | 16.0 | 0.00 | 0.00 | 0.00 | 49 | 1010.3 |
| 20260507204551 | 57 | 132 | 7.0 | 16.0 | 0.00 | 0.00 | 0.00 | 47 | 1010.3 |
| 20260507204041 | 57 | 164 | 8.0 | 16.0 | 0.00 | 0.00 | 0.00 | 46 | 1010.4 |
| 20260507203542 | 57 | 152 | 6.0 | 16.0 | 0.00 | 0.00 | 0.00 | 45 | 1010.3 |
| 20260507203047 | 57 | 168 | 3.0 | 13.0 | 0.00 | 0.00 | 0.00 | 45 | 1010.4 |
| 20260507202540 | 57 | 144 | 5.0 | 17.0 | 0.00 | 0.00 | 0.00 | 45 | 1010.3 |
| 20260507202040 | 58 | 360 | 4.0 | 17.0 | 0.00 | 0.00 | 0.00 | 46 | 1010.2 |
| 20260507201550 | 57 | 138 | 10.0 | 17.0 | 0.00 | 0.00 | 0.00 | 45 | 1010.3 |
| 20260507201041 | 57 | 134 | 7.0 | 16.0 | 0.00 | 0.00 | 0.00 | 46 | 1010.2 |
| 20260507200541 | 57 | 134 | 6.0 | 16.0 | 0.00 | 0.00 | 0.00 | 47 | 1010.2 |
| 20260507200051 | 58 | 119 | 6.0 | 17.0 | 0.00 | 0.00 | 0.00 | 42 | 1010.3 |
| 20260507195539 | 58 | 158 | 6.0 | 17.0 | 0.00 | 0.00 | 0.00 | 42 | 1010.2 |
| 20260507195041 | 57 | 143 | 3.0 | 15.0 | 0.00 | 0.00 | 0.00 | 42 | 1010.2 |
| 20260507194548 | 57 | 153 | 7.0 | 17.0 | 0.00 | 0.00 | 0.00 | 42 | 1010.4 |
| 20260507194041 | 57 | 126 | 9.0 | 18.0 | 0.00 | 0.00 | 0.00 | 41 | 1010.3 |
| 20260507193540 | 58 | 136 | 10.0 | 18.0 | 0.00 | 0.00 | 0.00 | 42 | 1010.5 |
| 20260507193052 | 58 | 151 | 5.0 | 17.0 | 0.00 | 0.00 | 0.00 | 42 | 1010.3 |
| 20260507192539 | 57 | 230 | 6.0 | 17.0 | 0.00 | 0.00 | 0.00 | 42 | 1010.4 |
| 20260507192040 | 57 | 125 | 7.0 | 17.0 | 0.00 | 0.00 | 0.00 | 40 | 1010.6 |
| 20260507191547 | 57 | 150 | 7.0 | 18.0 | 0.00 | 0.00 | 0.00 | 40 | 1010.6 |
| 20260507191039 | 57 | 123 | 7.0 | 19.0 | 0.00 | 0.00 | 0.00 | 42 | 1010.7 |
| 20260507190539 | 57 | 150 | 9.0 | 19.0 | 0.00 | 0.00 | 0.00 | 42 | 1010.4 |
| 20260507190052 | 58 | 139 | 6.0 | 18.0 | 0.00 | 0.00 | 0.00 | 42 | 1010.4 |
| 20260507185538 | 58 | 123 | 6.0 | 18.0 | 0.00 | 0.00 | 0.00 | 43 | 1010.6 |
| 20260507185041 | 57 | 139 | 7.0 | 18.0 | 0.00 | 0.00 | 0.00 | 43 | 1010.7 |
| 20260507184549 | 57 | 161 | 5.0 | 20.0 | 0.00 | 0.00 | 0.00 | 42 | 1010.6 |
| 20260507184041 | 57 | 142 | 8.0 | 20.0 | 0.00 | 0.00 | 0.00 | 42 | 1010.7 |
| 20260507183543 | 57 | 144 | 7.0 | 20.0 | 0.00 | 0.00 | 0.00 | 41 | 1010.8 |
| 20260507183055 | 57 | 159 | 9.0 | 20.0 | 0.00 | 0.00 | 0.00 | 42 | 1010.7 |
| 20260507182540 | 57 | 136 | 7.0 | 16.0 | 0.00 | 0.00 | 0.00 | 42 | 1010.7 |
| 20260507182041 | 57 | 162 | 9.0 | 16.0 | 0.00 | 0.00 | 0.00 | 42 | 1010.7 |
| 20260507181549 | 57 | 107 | 4.0 | 13.0 | 0.00 | 0.00 | 0.00 | 43 | 1010.8 |
| 20260507181039 | 58 | 138 | 5.0 | 12.0 | 0.00 | 0.00 | 0.00 | 43 | 1010.8 |
| 20260507180544 | 58 | 53 | 3.0 | 12.0 | 0.00 | 0.00 | 0.00 | 44 | 1010.8 |
| 20260507180057 | 57 | 172 | 5.0 | 15.0 | 0.00 | 0.00 | 0.00 | 45 | 1010.8 |
| 20260507175539 | 56 | 109 | 8.0 | 15.0 | 0.00 | 0.00 | 0.00 | 44 | 1011.0 |
| 20260507175039 | 56 | 137 | 9.0 | 17.0 | 0.00 | 0.00 | 0.00 | 44 | 1011.0 |
| 20260507174552 | 57 | 154 | 6.0 | 17.0 | 0.00 | 0.00 | 0.00 | 48 | 1011.0 |
| 20260507174041 | 56 | 159 | 7.0 | 16.0 | 0.00 | 0.00 | 0.00 | 42 | 1011.1 |
| 20260507173543 | 57 | 59 | 4.0 | 22.0 | 0.00 | 0.00 | 0.00 | 42 | 1011.2 |
| 20260507173101 | 57 | 127 | 6.0 | 22.0 | 0.00 | 0.00 | 0.00 | 43 | 1011.3 |
| 20260507172543 | 57 | 146 | 9.0 | 16.0 | 0.00 | 0.00 | 0.00 | 41 | 1011.3 |
| 20260507172043 | 57 | 126 | 6.0 | 16.0 | 0.00 | 0.00 | 0.00 | 41 | 1011.3 |
| 20260507171555 | 57 | 125 | 5.0 | 16.0 | 0.00 | 0.00 | 0.00 | 44 | 1011.4 |
| 20260507171042 | 57 | 98 | 7.0 | 14.0 | 0.00 | 0.00 | 0.00 | 44 | 1011.4 |
| 20260507170542 | 56 | 149 | 6.0 | 16.0 | 0.00 | 0.00 | 0.00 | 46 | 1011.3 |
| 20260507170056 | 56 | 154 | 4.0 | 16.0 | 0.00 | 0.00 | 0.00 | 46 | 1011.4 |
| 20260507165541 | 56 | 153 | 5.0 | 18.0 | 0.00 | 0.00 | 0.00 | 44 | 1011.5 |
| 20260507165039 | 56 | 148 | 8.0 | 18.0 | 0.00 | 0.00 | 0.00 | 42 | 1011.5 |
| 20260507164548 | 56 | 115 | 9.0 | 17.0 | 0.00 | 0.00 | 0.00 | 43 | 1011.4 |
| 20260507164041 | 57 | 142 | 3.0 | 11.0 | 0.00 | 0.00 | 0.00 | 45 | 1011.4 |
| 20260507163539 | 57 | 90 | 2.0 | 16.0 | 0.00 | 0.00 | 0.00 | 43 | 1011.3 |
| 20260507163051 | 56 | 132 | 4.0 | 19.0 | 0.00 | 0.00 | 0.00 | 43 | 1011.5 |
| 20260507162541 | 56 | 0 | 5.0 | 19.0 | 0.00 | 0.00 | 0.00 | 45 | 1011.4 |
| 20260507162038 | 56 | 142 | 5.0 | 15.0 | 0.00 | 0.00 | 0.00 | 42 | 1011.4 |
| 20260507161556 | 56 | 165 | 7.0 | 14.0 | 0.00 | 0.00 | 0.00 | 42 | 1011.5 |
| 20260507161040 | 56 | 83 | 4.0 | 14.0 | 0.00 | 0.00 | 0.00 | 45 | 1011.3 |
| 20260507160541 | 56 | 155 | 6.0 | 14.0 | 0.00 | 0.00 | 0.00 | 47 | 1011.3 |
| 20260507160057 | 55 | 109 | 4.0 | 12.0 | 0.00 | 0.00 | 0.00 | 43 | 1011.4 |
| 20260507155538 | 55 | 125 | 4.0 | 16.0 | 0.00 | 0.00 | 0.00 | 44 | 1011.4 |
| 20260507155044 | 55 | 174 | 3.0 | 16.0 | 0.00 | 0.00 | 0.00 | 46 | 1011.4 |
| 20260507154555 | 55 | 130 | 5.0 | 16.0 | 0.00 | 0.00 | 0.00 | 43 | 1011.5 |
| 20260507154040 | 55 | 169 | 8.0 | 16.0 | 0.00 | 0.00 | 0.00 | 47 | 1011.5 |
| 20260507153540 | 55 | 144 | 5.0 | 16.0 | 0.00 | 0.00 | 0.00 | 45 | 1011.4 |
| 20260507153101 | 56 | 134 | 5.0 | 15.0 | 0.00 | 0.00 | 0.00 | 47 | 1011.4 |
| 20260507152539 | 55 | 130 | 6.0 | 15.0 | 0.00 | 0.00 | 0.00 | 48 | 1011.4 |
| 20260507152041 | 55 | 149 | 5.0 | 11.0 | 0.00 | 0.00 | 0.00 | 46 | 1011.6 |
| 20260507151552 | 55 | 153 | 5.0 | 11.0 | 0.00 | 0.00 | 0.00 | 46 | 1011.6 |
| 20260507151040 | 55 | 161 | 4.0 | 11.0 | 0.00 | 0.00 | 0.00 | 44 | 1011.5 |
| 20260507150539 | 55 | 142 | 3.0 | 11.0 | 0.00 | 0.00 | 0.00 | 51 | 1011.5 |
| 20260507150055 | 55 | 130 | 2.0 | 11.0 | 0.00 | 0.00 | 0.00 | 47 | 1011.6 |
| 20260507145541 | 55 | 144 | 2.0 | 8.0 | 0.00 | 0.00 | 0.00 | 49 | 1011.6 |
| 20260507145038 | 55 | 148 | 3.0 | 8.0 | 0.00 | 0.00 | 0.00 | 48 | 1011.7 |
| 20260507144553 | 54 | 0 | 3.0 | 8.0 | 0.00 | 0.00 | 0.00 | 50 | 1011.7 |
| 20260507144039 | 54 | 78 | 1.0 | 12.0 | 0.00 | 0.00 | 0.00 | 48 | 1011.7 |
| 20260507143540 | 54 | 140 | 3.0 | 12.0 | 0.00 | 0.00 | 0.00 | 48 | 1011.8 |
| 20260507143103 | 55 | 123 | 1.0 | 11.0 | 0.00 | 0.00 | 0.00 | 50 | 1011.9 |
| 20260507142542 | 54 | 172 | 1.0 | 11.0 | 0.00 | 0.00 | 0.00 | 54 | 1011.9 |
| 20260507142040 | 54 | 150 | 0.0 | 11.0 | 0.00 | 0.00 | 0.00 | 53 | 1011.9 |
| 20260507141551 | 52 | 63 | 3.0 | 14.0 | 0.00 | 0.00 | 0.00 | 53 | 1012.0 |
| 20260507141041 | 53 | 150 | 6.0 | 14.0 | 0.00 | 0.00 | 0.00 | 57 | 1012.1 |
| 20260507140540 | 53 | 148 | 4.0 | 12.0 | 0.00 | 0.00 | 0.00 | 52 | 1012.1 |
| 20260507140051 | 52 | 104 | 3.0 | 12.0 | 0.00 | 0.00 | 0.00 | 58 | 1012.2 |
| 20260507135544 | 52 | 116 | 3.0 | 12.0 | 0.00 | 0.00 | 0.00 | 58 | 1012.3 |
| 20260507135042 | 52 | 79 | 2.0 | 12.0 | 0.00 | 0.00 | 0.00 | 61 | 1012.3 |
| 20260507134553 | 51 | 141 | 2.0 | 7.0 | 0.00 | 0.00 | 0.00 | 67 | 1012.4 |
| 20260507134040 | 51 | 150 | 2.0 | 8.0 | 0.00 | 0.00 | 0.00 | 66 | 1012.4 |
| 20260507133541 | 50 | 160 | 2.0 | 8.0 | 0.00 | 0.00 | 0.00 | 67 | 1012.4 |
| 20260507133051 | 50 | 148 | 1.0 | 9.0 | 0.00 | 0.00 | 0.00 | 70 | 1012.4 |
| 20260507132538 | 49 | 265 | 3.0 | 9.0 | 0.00 | 0.00 | 0.00 | 70 | 1012.4 |
| 20260507132044 | 49 | 90 | 1.0 | 5.0 | 0.00 | 0.00 | 0.00 | 69 | 1012.5 |
| 20260507131552 | 48 | 132 | 1.0 | 5.0 | 0.00 | 0.00 | 0.00 | 73 | 1012.5 |
| 20260507131042 | 48 | 35 | 0.0 | 5.0 | 0.00 | 0.00 | 0.00 | 73 | 1012.5 |
| 20260507130542 | 48 | 0 | 2.0 | 5.0 | 0.00 | 0.00 | 0.00 | 72 | 1012.5 |
| 20260507125540 | 47 | 115 | 0.0 | 9.0 | 0.00 | 0.01 | 0.00 | 77 | 1012.5 |
| 20260507125040 | 47 | 142 | 3.0 | 8.0 | 0.00 | 0.01 | 0.00 | 75 | 1012.4 |
| 20260507124556 | 46 | 139 | 2.0 | 7.0 | 0.00 | 0.01 | 0.00 | 77 | 1012.3 |
| 20260507124042 | 46 | 124 | 2.0 | 7.0 | 0.00 | 0.01 | 0.00 | 78 | 1012.3 |
| 20260507123540 | 45 | 123 | 1.0 | 7.0 | 0.00 | 0.01 | 0.00 | 81 | 1012.3 |
| 20260507123057 | 45 | 144 | 3.0 | 7.0 | 0.00 | 0.01 | 0.00 | 81 | 1012.4 |
| 20260507122542 | 44 | 0 | 0.0 | 2.0 | 0.00 | 0.01 | 0.00 | 85 | 1012.3 |
| 20260507122041 | 44 | 119 | 0.0 | 3.0 | 0.00 | 0.01 | 0.00 | 92 | 1012.5 |
| 20260507121556 | 43 | 0 | 0.0 | 3.0 | 0.00 | 0.01 | 0.00 | 92 | 1012.5 |
| 20260507121040 | 42 | 0 | 0.0 | 0.0 | 0.00 | 0.01 | 0.00 | 93 | 1012.4 |
| 20260507120540 | 42 | 0 | 0.0 | 0.0 | 0.00 | 0.01 | 0.00 | 93 | 1012.5 |
| 20260507120050 | 41 | 0 | 0.0 | 0.0 | 0.00 | 0.01 | 0.00 | 93 | 1012.4 |
| 20260507115541 | 41 | 0 | 0.0 | 0.0 | 0.00 | 0.03 | 0.00 | 93 | 1012.4 |
| 20260507115040 | 41 | 0 | 0.0 | 0.0 | 0.00 | 0.03 | 0.00 | 94 | 1012.4 |
| 20260507114547 | 40 | 0 | 0.0 | 0.0 | 0.00 | 0.03 | 0.00 | 94 | 1012.4 |
| 20260507114040 | 40 | 0 | 0.0 | 0.0 | 0.00 | 0.03 | 0.00 | 94 | 1012.2 |
| 20260507113544 | 39 | 0 | 0.0 | 0.0 | 0.00 | 0.03 | 0.00 | 94 | 1012.3 |
| 20260507113049 | 38 | 0 | 0.0 | 0.0 | 0.00 | 0.03 | 0.00 | 94 | 1012.2 |
| 20260507112542 | 38 | 0 | 0.0 | 0.0 | 0.00 | 0.03 | 0.00 | 94 | 1012.2 |
| 20260507112045 | 37 | 0 | 0.0 | 0.0 | 0.00 | 0.03 | 0.00 | 94 | 1012.2 |
| 20260507111549 | 37 | 0 | 0.0 | 0.0 | 0.00 | 0.03 | 0.00 | 93 | 1012.0 |
| 20260507111042 | 37 | 0 | 0.0 | 0.0 | 0.00 | 0.03 | 0.00 | 93 | 1012.0 |
| 20260507110540 | 37 | 0 | 0.0 | 0.0 | 0.00 | 0.03 | 0.00 | 94 | 1012.0 |
| 20260507110058 | 37 | 0 | 0.0 | 0.0 | 0.00 | 0.03 | 0.00 | 93 | 1012.0 |
| 20260507105540 | 36 | 0 | 0.0 | 0.0 | 0.00 | 0.03 | 0.00 | 93 | 1011.9 |
| 20260507105041 | 36 | 0 | 0.0 | 0.0 | 0.00 | 0.03 | 0.00 | 93 | 1012.0 |
| 20260507104557 | 36 | 0 | 0.0 | 0.0 | 0.00 | 0.03 | 0.00 | 93 | 1011.9 |
| 20260507104041 | 36 | 0 | 0.0 | 0.0 | 0.00 | 0.03 | 0.00 | 93 | 1011.9 |
| 20260507103543 | 36 | 0 | 0.0 | 0.0 | 0.00 | 0.03 | 0.00 | 93 | 1011.8 |
| 20260507103122 | 36 | 0 | 0.0 | 0.0 | 0.00 | 0.03 | 0.00 | 93 | 1011.8 |
| 20260507102539 | 36 | 0 | 0.0 | 0.0 | 0.00 | 0.03 | 0.00 | 93 | 1011.8 |
| 20260507102040 | 36 | 0 | 0.0 | 0.0 | 0.00 | 0.03 | 0.00 | 93 | 1011.8 |
| 20260507101553 | 37 | 0 | 0.0 | 0.0 | 0.00 | 0.03 | 0.00 | 94 | 1011.7 |
| 20260507101041 | 36 | 0 | 0.0 | 0.0 | 0.00 | 0.03 | 0.00 | 93 | 1011.7 |
| 20260507100540 | 36 | 0 | 0.0 | 0.0 | 0.00 | 0.03 | 0.00 | 93 | 1011.7 |
| 20260507100103 | 36 | 0 | 0.0 | 0.0 | 0.00 | 0.03 | 0.00 | 93 | 1011.7 |